Location: Ebenezer
(18.2167°N, 63.0667°W)
Time: 01:29:00
(UTC+00:00)

Fermi - Pass Details

Date: 26 January 2020
Orbit: 523 x 541 km, 25.6° (Epoch: 25 February)

Event Time Altitude Azimuth Distance (km) Brightness Sun altitude
Rises 23:06:46 0° 267° (W) 2,664 9.0 -15.3°
Reaches altitude 10° 23:09:06 10° 273° (W) 1,771 7.6 -15.8°
Maximum altitude 23:13:02 44° 347° (NNW) 733 4.4 -16.7°
Enters shadow 23:14:33 30° 38° (NE) 962 4.6 -17.1°
